THOR ABLESTAR DEB, 3124

Orbit data source: Space-Track

THOR ABLESTAR DEB, 3124 is space debris in LEO originally from a launch on Thu, 29 Jun 1961 UTC launched from the Air Force Eastern Test Range (AFETR). Debris objects in space refer to the collection of defunct objects orbiting the Earth. Examples of debris include non-operational satellites, rocket bodies, and fragments generated from explosions, collisions, or faulty payload assembly.

Loading next visibility...
Identifier
3124, 1961-015HX
Orbit
LEO
Last TLE update
7 hours ago
Origin
Manufacturer
Unknown
Mission
Spacecraft
Bus & Motor
Unknown
Mass
Unknown
Launch date (UTC)
1961-06-29 (64 years ago)
Launch vehicle
Unknown
Launch site
Air Force Eastern Test Range (AFETR)
Object type
Payload
Rocket body
Debris
Shape & HBR
Unknown
Radar Cross Section
Small (<0.1 m²)

Expand to show TLE details & history

TLE from 7 hours ago
0 THOR ABLESTAR DEB
1 03124U 61015HX  25182.89811455  .00000893  00000-0  96613-3 0  9990
2 03124  66.9870   5.7912 0328365 323.0101  34.8716 13.56312107121618
Epoch: 2025-07-01T21:33Z
TLE epoch observation values (Epoch: 2025-07-01T21:33:17.097Z)
Latitude
-0.00003°
Longitude
122.28298°
Altitude
853.801 km
Speed
7.524 km/s
True Right ascension
00h 23m 09s
True Declination
0° 00' 00"
Sunlit
Object was in daylight at epoch
Visualization orbit readout
Latitude
-67.08314°
Longitude
33.63197°
Altitude
918.767 km
Speed
7.469 km/s
Apparent Right ascension
01h 40m 11s
Apparent Declination
-73° 25' 41"
Sunlit
Object is in full shadow
Visualization observer readout
Local Sidereal Time
15:54:33
Azimuth
164.846° S
Elevation
-52.867°
Doppler factor
1
Orbital elements
Apogee altitude
1,291.354 km
Perigee altitude
803.689 km
Semi-major axis
7,425.659 km
Eccentricity
0.03284
Inclination
66.987°
RAAN
5.7912°
Arg. of periapsis
323.0101°
True anomaly
Unknown
Mean anomaly
34.8716°
Eccentric anomaly
Unknown
Mean motion
3.39188 °/min
Orbital period
106.14 mins
BSTAR
0.00096613
Loading maneuver chart data...
Loading SW <> Apogee altitude chart data...

THOR ABLESTAR DEB Visibility forecast

Observer location: undefined°, undefined°

Span
Click to sort rows by Start time (UTC) header in descending order
Start Az.
Max El. time (UTC)
Max El. Az.
Max El.
End time (UTC)
End Az.
12 mins2025-07-02 13:35:11.764Z197.069° SSW2025-07-02 13:41:11.764Z109.445° ESE43.35°2025-07-02 13:47:11.764Z33.503° NE
9 mins2025-07-02 15:27:11.764Z273.062° WNW2025-07-02 15:31:11.764Z319.079° NNW22.537°2025-07-02 15:36:11.764Z7.458° NNE
10 mins2025-07-02 21:05:11.764Z358.875° N2025-07-02 21:10:11.764Z44.68° NE21.288°2025-07-02 21:15:11.764Z86.778° E
14 mins2025-07-02 22:54:11.764Z333.144° NNW2025-07-02 23:00:11.764Z46.71° ENE44.858°2025-07-02 23:08:11.764Z150.591° SSE
8 mins2025-07-03 00:45:11.764Z289.721° WNW2025-07-03 00:49:11.764Z253.778° W19.22°2025-07-03 00:53:11.764Z220.651° SW
|